This demonstration page uses our WeatherBlox Daily Observations layout. Learn more.

Hourly Observations for December 6, 2018

Temp ( °F °C ) Dew Point ( °F °C ) Humidity (%) Winds ( mph kmh ) Pressure ( in mb ) Visibility ( mi km ) Precip ( " mm )
12:15 am 00:15 Cloudy 28 -2.1 25 -4 87 87 N 17 28 30.3 1026 10 16.0934 0 0
12:35 am 00:35 Cloudy 28 -2.2 25 -3.7 90 90 N 17 28 30.3 1026 10 16.0934 0 0
12:55 am 00:55 Cloudy 28 -2.2 25 -3.7 90 90 N 15 24 30.3 1026 10 16.0934 0 0
1:15 am 01:15 Cloudy 28 -2.3 25 -3.7 90 90 N 16 26 30.33 1027 10 16.0934 0 0
1:35 am 01:35 Cloudy 28 -2.2 25 -3.7 90 90 N 17 28 30.33 1027 10 16.0934 0 0
1:55 am 01:55 Cloudy 28 -2.2 26 -3.6 90 90 N 18 30 30.33 1027 10 16.0934 0 0
2:15 am 02:15 Cloudy 28 -2.3 25 -3.8 90 90 N 20 31 30.33 1027 10 16.0934 0 0
2:35 am 02:35 Cloudy 28 -2.5 25 -3.8 91 91 N 20 31 30.33 1027 10 16.0934 0 0
2:55 am 02:55 Cloudy with Light Snow 27 -2.7 26 -3.5 94 94 N 16 26 30.36 1028 5 8.0467 0 0
3:15 am 03:15 Cloudy with Light Snow 27 -3 26 -3.5 96 96 N 14 22 30.36 1028 4 6.43736 0 0
3:35 am 03:35 Cloudy with Light Snow 27 -3 26 -3.5 96 96 N 14 22 30.36 1028 7 11.26538 0 0
3:55 am 03:55 Cloudy with Light Snow 27 -3 26 -3.5 96 96 N 12 19 30.39 1029 5 8.0467 0 0
4:15 am 04:15 Cloudy 26 -3.1 26 -3.6 96 96 N 14 22 30.39 1029 7 11.26538 0 0
4:35 am 04:35 Cloudy 26 -3.2 25 -3.8 96 96 N 14 22 30.39 1029 10 16.0934 0 0
4:55 am 04:55 Cloudy 26 -3.2 25 -3.9 95 95 N 10 17 30.39 1029 10 16.0934 0 0
5:15 am 05:15 Cloudy 26 -3.2 25 -4.1 94 94 N 12 19 30.39 1029 10 16.0934 0 0
5:35 am 05:35 Cloudy 26 -3.3 24 -4.3 93 93 N 9 15 30.42 1030 10 16.0934 0 0
5:55 am 05:55 Cloudy 26 -3.3 24 -4.5 92 92 N 10 17 30.42 1030 10 16.0934 0 0
6:15 am 06:15 Partly Cloudy 26 -3.5 23 -5 89 89 N 9 15 30.42 1030 10 16.0934 0 0
6:35 am 06:35 Clear 25 -3.7 23 -5.2 89 89 N 10 17 30.42 1030 10 16.0934 0 0
6:55 am 06:55 Clear 25 -4 22 -5.5 89 89 N 12 19 30.45 1031 10 16.0934 0 0
7:15 am 07:15 Clear 24 -4.5 22 -5.7 91 91 N 8 13 30.48 1032 10 16.0934 0 0
7:35 am 07:35 Clear 24 -4.3 22 -5.3 93 93 N 6 9 30.48 1032 10 16.0934 0 0
7:55 am 07:55 Sunny 24 -4.3 22 -5.3 93 93 N 7 11 30.48 1032 10 16.0934 0 0
8:15 am 08:15 Sunny 24 -4.5 22 -5.3 94 94 N 6 9 30.5 1033 10 16.0934 0 0
8:35 am 08:35 Sunny 24 -4.5 22 -5.3 94 94 N 7 11 30.5 1033 10 16.0934 0 0
8:55 am 08:55 Sunny 24 -4.2 22 -5.5 91 91 N 8 13 30.5 1033 10 16.0934 0 0
9:15 am 09:15 Sunny 25 -4 22 -5.8 87 87 N 9 15 30.5 1033 10 16.0934 0 0
9:35 am 09:35 Sunny 25 -3.8 21 -6.1 84 84 N 10 17 30.53 1034 10 16.0934 0 0
9:55 am 09:55 Sunny 25 -3.9 21 -6.1 85 85 N 9 15 30.53 1034 10 16.0934 0 0
10:15 am 10:15 Partly Cloudy 25 -4 21 -6.2 85 85 N 13 20 30.53 1034 10 16.0934 0 0
10:35 am 10:35 Sunny 25 -3.7 21 -6 84 84 N 9 15 30.53 1034 10 16.0934 0 0
10:55 am 10:55 Sunny 25 -3.7 22 -5.8 86 86 N 12 19 30.53 1034 10 16.0934 0 0
11:15 am 11:15 Sunny 26 -3.5 22 -5.7 85 85 N 13 20 30.53 1034 10 16.0934 0 0
11:35 am 11:35 Partly Cloudy 26 -3.6 22 -5.8 85 85 N 12 19 30.53 1034 10 16.0934 0 0
11:55 am 11:55 Mostly Cloudy 25 -3.8 21 -6 85 85 N 9 15 30.53 1034 10 16.0934 0 0
12:15 pm 12:15 Partly Cloudy 25 -3.7 21 -6 84 84 N 12 19 30.53 1034 10 16.0934 0 0
12:35 pm 12:35 Sunny 26 -3.5 22 -5.8 84 84 N 12 19 30.53 1034 10 16.0934 0 0
12:55 pm 12:55 Partly Cloudy 26 -3.5 22 -5.7 85 85 N 8 13 30.53 1034 10 16.0934 0 0
1:15 pm 13:15 Mostly Cloudy 26 -3.4 22 -5.7 84 84 N 7 11 30.53 1034 10 16.0934 0 0
1:35 pm 13:35 Cloudy 26 -3.2 22 -5.6 84 84 N 7 11 30.48 1032 10 16.0934 0 0
1:55 pm 13:55 Cloudy 26 -3.2 22 -5.6 84 84 N 3 6 30.48 1032 10 16.0934 0 0
2:15 pm 14:15 Cloudy 26 -3.2 22 -5.8 82 82 N 7 11 30.48 1032 10 16.0934 0 0
2:35 pm 14:35 Cloudy 26 -3.4 21 -6 82 82 N 5 7 30.5 1033 10 16.0934 0 0
2:55 pm 14:55 Cloudy 26 -3.2 21 -5.9 82 82 N 7 11 30.48 1032 10 16.0934 0 0
3:15 pm 15:15 Cloudy 26 -3.3 21 -5.9 82 82 NNE 7 11 30.48 1032 10 16.0934 0 0
3:35 pm 15:35 Cloudy 26 -3.5 21 -6.1 82 82 N 6 9 30.5 1033 10 16.0934 0 0
3:55 pm 15:55 Cloudy 25 -3.9 20 -6.5 82 82 NNE 3 6 30.5 1033 10 16.0934 0 0
4:15 pm 16:15 Cloudy 25 -4 20 -6.5 83 83 Calm 30.53 1034 10 16.0934 0 0
4:35 pm 16:35 Cloudy 25 -4.1 20 -6.6 83 83 N 5 7 30.53 1034 10 16.0934 0 0
4:55 pm 16:55 Cloudy 24 -4.5 19 -7 83 83 Calm 30.53 1034 10 16.0934 0 0
5:15 pm 17:15 Cloudy 24 -4.7 19 -7 84 84 Calm 30.53 1034 10 16.0934 0 0
5:35 pm 17:35 Cloudy 23 -5 19 -7 86 86 Calm 30.53 1034 10 16.0934 0 0
5:55 pm 17:55 Cloudy 23 -4.8 19 -7 85 85 Calm 30.53 1034 10 16.0934 0 0
6:15 pm 18:15 Mostly Cloudy 22 -5.4 19 -7.1 88 88 Calm 30.53 1034 10 16.0934 0 0
6:35 pm 18:35 Partly Cloudy 21 -6.2 18 -7.8 89 89 Calm 30.56 1035 10 16.0934 0 0
6:55 pm 18:55 Partly Cloudy 20 -6.4 19 -7.3 93 93 Calm 30.56 1035 10 16.0934 0 0
7:15 pm 19:15 Clear 21 -6.1 19 -7.2 92 92 Calm 30.56 1035 10 16.0934 0 0
7:35 pm 19:35 Clear 20 -6.7 18 -7.8 92 92 Calm 30.56 1035 10 16.0934 0 0
7:55 pm 19:55 Clear 18 -7.6 17 -8.2 96 96 Calm 30.56 1035 10 16.0934 0 0
8:15 pm 20:15 Mostly Cloudy 19 -7.2 18 -7.7 96 96 Calm 30.56 1035 10 16.0934 0 0
8:35 pm 20:35 Cloudy 18 -7.9 17 -8.5 96 96 Calm 30.56 1035 10 16.0934 0 0
8:55 pm 20:55 Mostly Cloudy 18 -7.6 18 -7.9 98 98 Calm 30.56 1035 10 16.0934 0 0
9:15 pm 21:15 Partly Cloudy 17 -8.2 17 -8.5 98 98 Calm 30.56 1035 10 16.0934 0 0
9:35 pm 21:35 Mostly Cloudy 16 -9.1 15 -9.6 96 96 Calm 30.59 1036 10 16.0934 0 0
9:55 pm 21:55 Mostly Cloudy 18 -8 17 -8.1 99 99 Calm 30.53 1034 10 16.0934 0 0
10:15 pm 22:15 Cloudy 17 -8.1 17 -8.5 97 97 Calm 30.53 1034 10 16.0934 0 0
10:35 pm 22:35 Cloudy 18 -7.6 17 -8.2 96 96 ESE 3 6 30.53 1034 10 16.0934 0 0
10:55 pm 22:55 Cloudy 18 -7.6 17 -8.1 96 96 ESE 5 7 30.53 1034 10 16.0934 0 0
11:15 pm 23:15 Partly Cloudy 18 -7.7 17 -8.2 96 96 SSE 3 6 30.56 1035 10 16.0934 0 0
11:35 pm 23:35 Partly Cloudy 17 -8.2 16 -8.7 96 96 SSE 3 6 30.53 1034 10 16.0934 0 0
11:55 pm 23:55 Mostly Cloudy 18 -8 17 -8.5 96 96 SSE 5 7 30.53 1034 10 16.0934 0 0

Powered by AerisWeather